STARLINK-35193, 65889

Orbit data source: Space-Track

STARLINK-35193, 65889 is a payload satellite owned by SpaceX/Seattle (US) in LEO that was launched on Tue, 07 Oct 2025 UTC via an FALCON 9 launch vehicle from the Air Force Eastern Test Range (AFETR). Payload-class satellites include a variety of spacecraft equipped with specific instruments for various scientific and technological missions. These include communications satellites like Starlink; space stations such as the ISS; scientific satellites like the Hubble; Earth observation satellites from companies like Planet Labs, Umbra, and HawkEye 360; GPS; miniature CubeSats for education and research; and military/defense satellites.

Loading next visibility...
Identifier
65889, 2025-224H
Orbit
LEO
Country
Flag of USUS
Related business
Manufacturer
SpaceX/Seattle
Mission
Operational spacecraft
Bus & Motor
STARLINK V2MO, Unknown motor
Mass
575 kg wet, ~530 kg dry
Launch date (UTC)
2025-10-07 (2 months ago)
Launch vehicle
FALCON 9
Launch site
Air Force Eastern Test Range (AFETR)
Object type
Payload
Rocket body
Debris
Shape & HBR
Unknown shape, 17.7 m
Radar Cross Section
RCS unknown

Expand to show TLE details & history
Last TLE update: 17 hours ago

TLE from 17 hours ago
0 STARLINK-35193
1 65889U 25224H   25340.70181747  .00061483  00000-0  20688-2 0  9998
2 65889  53.1621  83.5318 0001280  97.1609 262.9537 15.30232286 10611
Epoch: 2025-12-06T16:50Z
TLE epoch observation values (Epoch: 2025-12-06T16:50:37.029Z)
Latitude
-0.00005°
Longitude
115.15171°
Altitude
476.126 km
Speed
7.629 km/s
True Right ascension
05h 34m 07s
True Declination
0° 00' 00"
Sunlit
Object was in full shadow at epoch
Visualization orbit readout
Latitude
Unknown
Longitude
Unknown
Altitude
Unknown
Speed
Unknown
Apparent Right ascension
Unknown
Apparent Declination
Unknown
Sunlit
N/A
Visualization observer readout
Local Sidereal Time
07:36:44
Azimuth
Unknown
Elevation
Unknown
Doppler factor
Unknown
Orbital elements
Apogee altitude
476.252 km
Perigee altitude
474.498 km
Semi-major axis
6,853.512 km
Eccentricity
0.00013
Inclination
53.1621°
RAAN
83.5318°
Arg. of periapsis
97.1609°
True anomaly
262.93914°
Mean anomaly
262.9537°
Eccentric anomaly
262.94642°
Mean motion
3.82537 °/min
Orbital period
94.11 mins
BSTAR
0.0020688
Loading maneuver chart data...
Computing Atmospheric mass density...
Loading historical data...
Loading historical data...
Loading historical data...
Loading historical data...
Loading historical data...
Loading historical data...
Loading historical data...

Documentation

Showing up to 5 results
|